{"data":{"norad_id":63423,"epoch":"2026-09-20T05:06:56.073600Z","epoch_age_seconds":183640,"freshness":"STALE","line1":"1 63423U 25065AA  26263.21314900  .00007505  00000+0  28189-3 0  9992","line2":"2 63423  43.0027  88.1174 0001383 275.2844  84.7850 15.27588022 82598","mean_motion":15.27588022,"eccentricity":0.0001383,"inclination_deg":43.0027,"raan_deg":88.1174,"arg_perigee_deg":275.2844,"mean_anomaly_deg":84.785,"bstar":0.00028189,"rev_number":8259,"period_min":94.26625367975,"perigee_km":482.07617667585,"apogee_km":483.9739741059,"semimajor_km":6861.1620753909,"source":"CELESTRAK","updated_at":"2026-09-21T09:00:34.982701Z"}}